Weather History for KRWL - March, 2014

Change the Weather History Date:

Tuesday, March 25, 2014

  Actual Average Record
Temperature  
Mean Temperature 39 °F 35 °F  
Max Temperature 58 °F 47 °F 71 °F (2012)
Min Temperature 20 °F 23 °F -7 °F (1955)
Degree Days  
Heating Degree Days 26 30  
Month to date heating degree days 785 838  
Since 1 July heating degree days 6549 6795  
Cooling Degree Days 0 0  
Month to date cooling degree days 0 0  
Year to date cooling degree days 0 0  
Moisture  
Dew Point 13 °F    
Average Humidity 46    
Maximum Humidity 77    
Minimum Humidity 15    
Precipitation  
Precipitation 0.00 in 0.03 in 0.13 in (1967)
Month to date precipitation 0.35 0.52  
Year to date precipitation 0.81 1.30  
Sea Level Pressure  
Sea Level Pressure 29.95 in    
Wind  
Wind Speed 10 mph (SW)    
Max Wind Speed 28 mph    
Max Gust Speed 36 mph    
Visibility 10 miles    
Events      
T = Trace of Precipitation, MM = Missing Value Source: NWS Daily Summary

Daily Weather History Graph

Daily Weather History Graph

Search for Another Location

Airport or City:

Trip Planner

Search our weather history database for the weather conditions in past years. The results will help you decide how hot, cold, wet, or windy it might be!

Date:

Astronomy

Mar. 25, 2014 Rise Set
Actual Time 7:03 AM MDT 7:26 PM MDT
Civil Twilight 6:35 AM MDT 7:54 PM MDT
Nautical Twilight 6:02 AM MDT 8:27 PM MDT
Astronomical Twilight 5:29 AM MDT 9:01 PM MDT
Moon 3:32 AM MDT (3/25) 1:56 PM MDT (3/25)
Length of Visible Light 13h 18m
Length of Day
12h 23m
Waning Crescent, 31% of the Moon is Illuminated
Mar 25
Waning Crescent
Mar 30
New
Apr 7
First Quarter
Apr 15
Full
Apr 22
Last Quarter

Hourly Weather History & Observations

Time (MDT) Temp. Windchill Dew Point Humidity Pressure Visibility Wind Dir Wind Speed Gust Speed Precip Events Conditions
12:53 AM 23.0 °F - 15.1 °F 72% 30.23 in 10.0 mi Calm Calm - N/A   Clear
1:53 AM 23.0 °F - 15.1 °F 72% 30.22 in 10.0 mi Calm Calm - N/A   Clear
2:53 AM 21.9 °F - 14.0 °F 72% 30.19 in 10.0 mi Calm Calm - N/A   Clear
3:53 AM 24.1 °F - 15.1 °F 69% 30.14 in 10.0 mi Calm Calm - N/A   Clear
4:53 AM 25.0 °F - 16.0 °F 69% 30.12 in 10.0 mi Calm Calm - N/A   Clear
5:53 AM 26.1 °F - 17.1 °F 69% 30.11 in 10.0 mi Calm Calm - N/A   Clear
6:53 AM 21.9 °F - 16.0 °F 78% 30.14 in 10.0 mi Calm Calm - N/A   Clear
7:53 AM 24.1 °F - 17.1 °F 75% 30.15 in 10.0 mi Calm Calm - N/A   Clear
8:53 AM 33.1 °F 27.7 °F 19.9 °F 59% 30.11 in 10.0 mi South 5.8 mph - N/A   Clear
9:53 AM 45.0 °F 37.1 °F 14.0 °F 29% 30.06 in 10.0 mi WSW 19.6 mph 24.2 mph N/A   Clear
10:53 AM 48.9 °F - 14.0 °F 25% 30.03 in 10.0 mi SW 20.7 mph 31.1 mph N/A   Clear
11:53 AM 50.0 °F - 12.9 °F 23% 30.01 in 10.0 mi WSW 18.4 mph 32.2 mph N/A   Clear
12:53 PM 54.0 °F - 9.0 °F 17% 29.95 in 10.0 mi WSW 20.7 mph 27.6 mph N/A   Clear
1:53 PM 55.0 °F - 9.0 °F 16% 29.91 in 10.0 mi SW 21.9 mph 31.1 mph N/A   Clear
2:53 PM 57.9 °F - 10.9 °F 16% 29.86 in 10.0 mi WSW 20.7 mph 35.7 mph N/A   Clear
3:53 PM 57.9 °F - 10.9 °F 16% 29.81 in 10.0 mi SW 21.9 mph 28.8 mph N/A   Clear
4:53 PM 57.0 °F - 10.0 °F 15% 29.78 in 10.0 mi WSW 18.4 mph 27.6 mph N/A   Clear
5:53 PM 55.9 °F - 10.0 °F 16% 29.75 in 10.0 mi WSW 13.8 mph - N/A   Clear
6:53 PM 54.0 °F - 9.0 °F 17% 29.76 in 10.0 mi SW 13.8 mph 17.3 mph N/A   Clear
7:53 PM 46.9 °F - 10.0 °F 22% 29.76 in 10.0 mi West 10.4 mph - N/A   Clear
8:53 PM 43.0 °F 39.5 °F 10.9 °F 27% 29.73 in 10.0 mi SW 5.8 mph - N/A   Clear
9:53 PM 43.0 °F 38.8 °F 10.9 °F 27% 29.67 in 10.0 mi WSW 6.9 mph - N/A   Clear
10:53 PM 39.9 °F 36.7 °F 12.0 °F 32% 29.64 in 10.0 mi WSW 4.6 mph - N/A   Clear
11:53 PM 37.9 °F 31.5 °F 12.0 °F 35% 29.63 in 10.0 mi WSW 9.2 mph - N/A   Clear